Location: Rowland
(34.5359°N, 79.2929°W)
Time: 19:02:29
(UTC+00:00)

Transit 2A - Pass Details

Date: 10 October 2022
Orbit: 598 x 959 km, 66.7° (Epoch: 03 December)

Event Time Altitude Azimuth Distance (km) Brightness Sun altitude
Rises 10:21:08 0° 351° (N) 3,004 9.0 -12.7°
Reaches altitude 10° 10:24:07 10° 12° (NNE) 2,149 8.5 -12.0°
Maximum altitude 10:27:22 18° 54° (NE) 1,762 8.7 -11.4°
Drops below altitude 10° 10:30:49 10° 95° (E) 2,297 10.1 -10.7°
Sets 10:34:07 0° 114° (ESE) 3,301 10.7 -10.0°
